Location: Moscow Pond
(43.6842°N, 73.2366°W)
Time: 02:41:24
(UTC+00:00)

Cosmos 1023 Rocket - Pass Details

Date: 08 November 2025
Orbit: 732 x 766 km, 74.1° (Epoch: 04 December)

Event Time Altitude Azimuth Distance (km) Brightness Sun altitude
Exits shadow 09:58:32 21° 325° (NW) 1,636 5.8 -18.3°
Maximum altitude 10:01:48 54° 255° (WSW) 891 4.5 -17.7°
Drops below altitude 10° 10:06:42 10° 179° (S) 2,226 7.0 -16.8°
Sets 10:09:04 0° 174° (S) 3,144 7.9 -16.4°
